Regional Weather Roundup
Issued by NWS

Home | Current Version | Previous Version | Text Only | Print | Product List | Glossary Off
Versions: 1 2 3 4 5 6 7 8 9 10 11 12 13 14 15 16 17 18 19 20 21 22 23 24 25 26 27 28 29 30 31 32 33 34 35 36 37 38 39 40 41 42 43 44 45 46 47 48 49 50

309
ASUS43 KOAX 251610
RWRNE

WEATHER ROUNDUP FOR NEBRASKA
NATIONAL WEATHER SERVICE OMAHA NE
1100 AM CDT TUE APR 25 2017

NOTES: SATELLITE DATA IS BEING USED TO AUGMENT CLOUD COVER ABOVE
       12000 FEET.
       "FAIR" INDICATES FEW OR NO CLOUDS BELOW 12,000 FEET WITH NO
       SIGNIFICANT WEATHER AND/OR OBSTRUCTIONS TO VISIBILITY.

  * THESE STATIONS DO NOT REPORT WEATHER SUCH AS RAIN...SNOW OR FOG.

NEZ001>004-019>022-054>056-251700-
NEBRASKA PANHANDLE

CITY           SKY/WX    TMP DP  RH WIND       PRES   REMARKS
SCOTTSBLUFF    SUNNY     54  39  57 NW13      29.54F
ALLIANCE       CLOUDY    43  39  86 E12       29.57R
CHADRON        CLOUDY    36  33  89 NE17      29.65R WCI  26
KIMBALL        SUNNY     53  34  49 NW18G25   29.57R
SIDNEY         CLOUDY    52  41  66 NW12      29.56S
$$

NEZ057>060-069>072-079>082-251700-
SOUTHWEST NEBRASKA

CITY           SKY/WX    TMP DP  RH WIND       PRES   REMARKS
NORTH PLATTE   CLOUDY    42  39  89 NE15G22   29.58R
IMPERIAL       CLOUDY    45  42  89 E5        29.57R
LEXINGTON      CLOUDY    42  38  88 N14G21    29.55F
MCCOOK         CLOUDY    47  44  90 NE13      29.54F
OGALLALA       CLOUDY    46  42  88 NE12      29.58R
$$

NEZ005>010-023>029-035>040-094-251700-
NORTH CENTRAL NEBRASKA

CITY           SKY/WX    TMP DP  RH WIND       PRES   REMARKS
VALENTINE      MIX PCPN  36  32  85 N15       29.65F WCI  27
AINSWORTH      CLOUDY    35  35 100 N14       29.63F WCI  26
BROKEN BOW     CLOUDY    39  32  76 N13       29.57S WCI  31
O`NEILL        LGT RAIN  37  35  93 N13G21    29.63F WCI  28
ORD            LGT RAIN  39  35  86 N20G25    29.57F WCI  29
THEDFORD       CLOUDY    38  37  94 NE17      29.60S WCI  28
$$

NEZ041-046>049-061>064-073>077-083>087-251700-
SOUTH CENTRAL NEBRASKA

CITY           SKY/WX    TMP DP  RH WIND       PRES   REMARKS
GRAND ISLAND   CLOUDY    41  40  96 N17       29.58R
AURORA         CLOUDY    43  41  92 N22G28    29.55F
HASTINGS       CLOUDY    44  40  85 N22       29.55S
HEBRON         CLOUDY    51  41  68 N18       29.49R
HOLDREGE       CLOUDY    43  40  89 N20       29.55S
KEARNEY *      CLOUDY    43  37  81 N20       29.56F
YORK           CLOUDY    45  41  87 N15G22    29.55F
$$

NEZ011>018-030>034-042>045-251700-
NORTHEAST NEBRASKA

CITY           SKY/WX    TMP DP  RH WIND       PRES   REMARKS
NORFOLK        LGT RAIN  39  36  89 N18       29.56R WCI  30
ALBION         MIX PCPN  40  36  87 N15G22    29.58R WCI  31
BLAIR          CLOUDY    48  43  82 N15G23    29.49F
FREMONT        CLOUDY    47  41  78 N9        29.53S
TEKAMAH        CLOUDY    48  41  76 N15       29.53R
WAYNE          CLOUDY    42  41  98 N20G26    29.55R
$$

NEZ050>053-065>068-078-088>093-251700-
SOUTHEAST NEBRASKA

CITY           SKY/WX    TMP DP  RH WIND       PRES   REMARKS
LINCOLN        CLOUDY    51  42  71 N16       29.51S
OMAHA EPPLEY   CLOUDY    51  42  71 N16       29.49F
BEATRICE       PTSUNNY   58  48  67 N13       29.46S
FALLS CITY     MOSUNNY   68  52  56 S9        29.42F
NEBRASKA CITY  CLOUDY    59  44  56 N13       29.45S
PLATTSMOUTH    CLOUDY    53  42  65 N8        29.47F
$$

NEZ044-045-051>053-067-251700-
OMAHA AREA

CITY           SKY/WX    TMP DP  RH WIND       PRES   REMARKS
OMAHA EPPLEY   CLOUDY    51  42  71 N16       29.49F
BLAIR          CLOUDY    48  43  82 N15G23    29.49F
FREMONT        CLOUDY    47  41  78 N9        29.53S
MILLARD        CLOUDY    52  44  75 N6G16     29.49F
OFFUTT AFB     CLOUDY    52  43  71 N10       29.48F
PLATTSMOUTH    CLOUDY    53  42  65 N8        29.47F
WAHOO          CLOUDY    49  41  72 N17G23    29.51S
$$




USA.gov is the U.S. government's official web portal to all federal, state and local government web resources and services.